TerraX-01

operational
NORAD ID: 66054 Int'l Des: 2025-234 Owner: TERXP/ZHWK Country: MY
LEOCIRCULARRETROGRADESSO

About TerraX-01

Description loading...

Live Position

Loading 3D Globe...

Upcoming Passes

Altitude History

Altitude vs Time

uPlot chart will show altitude changes over time

Two-Line Element Set

1 66054U 25234B 25293.24373831 .00011387 00000-0 51156-3 0 9990
2 66054 97.5070 358.9089 0014577 281.7075 78.2524 15.21222226 178
Epoch: Oct 20, 2025 • Age: 10 hours

Current Status

Altitude 506.9 km
Velocity 7.61 km/s
Sub-Earth Point -3.47°S, 92.39°W
Launch Date Oct 19, 2025
Age 1 days
Type other

Technical Details

Classification Payload
Mass 250.00 kg
Dry Mass 250.00 kg
Total Mass 250.00 kg
Length 1.00 m
Diameter 1.00 m
Span 6.00 m
Shape Box+3 pan
Manufacturer ZHWK/SECM
Bus Type ZK1
Phase Status In Orbit
Owner/State TERXP/ZHWK/MY

Large Constellations

Loading constellations...